Saginaw, MI

3:42 PM EDT on September 24, 2017 (GMT -0400)
MBS International

Weather History for KMBS - August, 2013

Change the Weather History Date:

Monday, August 19, 2013

  Actual Average Record
Temperature  
Mean Temperature 70 °F 69 °F  
Max Temperature 85 °F 79 °F 85 °F (2013)
Min Temperature 55 °F 58 °F 47 °F (1997)
Degree Days  
Heating Degree Days 0    
Month to date heating degree days 10  
Since 1 June heating degree days 74  
Since 1 July heating degree days 21  
Cooling Degree Days 5    
Month to date cooling degree days 53  
Year to date cooling degree days 497  
Since 1 June cooling degree days 423  
Growing Degree Days 20 (Base 50)    
Moisture  
Dew Point 55 °F    
Average Humidity 64    
Maximum Humidity 93    
Minimum Humidity 34    
Precipitation  
Precipitation 0.00 in 0.10 in 0.73 in (2014)
Month to date precipitation 1.08 1.97  
Year to date precipitation 23.05 19.18  
Snow  
Snow 0.00 in - - ()
Month to date snowfall 0.0  
Since 1 June snowfall 0.0  
Since 1 July snowfall 0.0  
Snow Depth 0.00 in    
Sea Level Pressure  
Sea Level Pressure 30.09 in    
Wind  
Wind Speed 6 mph (WSW)    
Max Wind Speed 17 mph    
Max Gust Speed 18 mph    
Visibility 10 miles    
Events      
T = Trace of Precipitation, MM = Missing Value Source: NWS Daily Summary

Daily Weather History Graph

Daily Weather History Graph

Search for Another Location

Airport or City:

Trip Planner

Search our weather history database for the weather conditions in past years. The results will help you decide how hot, cold, wet, or windy it might be!

Date:

Astronomy

Aug. 19, 2013 Rise Set
Actual Time 6:45 AM EDT 8:33 PM EDT
Civil Twilight 6:15 AM EDT 9:03 PM EDT
Nautical Twilight 5:38 AM EDT 9:40 PM EDT
Astronomical Twilight 4:57 AM EDT 10:20 PM EDT
Moon 7:23 PM EDT (8/19) 5:02 AM EDT (8/19)
Length of Visible Light 14h 48m
Length of Day
13h 47m
Waxing Gibbous, 97% of the Moon is Illuminated
Aug 19
Waxing Gibbous
Aug 20
Full
Aug 28
Last Quarter
Sep 5
New
Sep 12
First Quarter

Hourly Weather History & Observations

Time (EDT) Temp. Heat Index Dew Point Humidity Pressure Visibility Wind Dir Wind Speed Gust Speed Precip Events Conditions
12:53 AM 63.0 °F - 55.0 °F 75% 30.12 in 10.0 mi SSW 4.6 mph - N/A   Clear
1:53 AM 61.0 °F - 54.0 °F 78% 30.12 in 10.0 mi West 5.8 mph - N/A   Clear
2:53 AM 62.1 °F - 54.0 °F 75% 30.11 in 10.0 mi SW 3.5 mph - N/A   Clear
3:53 AM 57.9 °F - 53.1 °F 84% 30.11 in 10.0 mi SW 3.5 mph - N/A   Clear
4:53 AM 57.0 °F - 52.0 °F 83% 30.11 in 10.0 mi Calm Calm - N/A   Clear
5:53 AM 57.0 °F - 54.0 °F 89% 30.12 in 10.0 mi SW 5.8 mph - N/A   Clear
6:53 AM 55.9 °F - 53.1 °F 90% 30.12 in 8.0 mi WSW 4.6 mph - N/A   Clear
7:53 AM 59.0 °F - 55.0 °F 87% 30.13 in 10.0 mi Calm Calm - N/A   Clear
8:53 AM 64.9 °F - 57.0 °F 75% 30.12 in 10.0 mi Calm Calm - N/A   Clear
9:53 AM 71.1 °F - 57.9 °F 63% 30.12 in 10.0 mi SW 4.6 mph - N/A   Clear
10:53 AM 75.0 °F - 57.0 °F 53% 30.11 in 10.0 mi Variable 3.5 mph - N/A   Clear
11:53 AM 75.9 °F - 57.0 °F 52% 30.12 in 10.0 mi Variable 6.9 mph - N/A   Clear
12:53 PM 79.0 °F - 55.0 °F 44% 30.11 in 10.0 mi WNW 9.2 mph - N/A   Clear
1:53 PM 81.0 °F 80.7 °F 55.0 °F 41% 30.08 in 10.0 mi WNW 8.1 mph - N/A   Clear
2:53 PM 82.0 °F 81.6 °F 55.9 °F 41% 30.07 in 10.0 mi West 8.1 mph 18.4 mph N/A   Clear
3:53 PM 84.0 °F 82.6 °F 54.0 °F 35% 30.05 in 10.0 mi SW 13.8 mph - N/A   Clear
4:53 PM 84.0 °F 82.9 °F 55.0 °F 37% 30.03 in 10.0 mi SW 9.2 mph - N/A   Clear
5:53 PM 82.9 °F 81.9 °F 54.0 °F 37% 30.04 in 10.0 mi WSW 13.8 mph 18.4 mph N/A   Clear
6:53 PM 82.0 °F 81.4 °F 55.0 °F 39% 30.03 in 10.0 mi SW 10.4 mph - N/A   Clear
7:53 PM 78.1 °F - 57.0 °F 48% 30.03 in 10.0 mi SW 6.9 mph - N/A   Clear
8:53 PM 73.0 °F - 57.9 °F 59% 30.03 in 10.0 mi SW 4.6 mph - N/A   Clear
9:53 PM 70.0 °F - 57.9 °F 65% 30.05 in 10.0 mi WSW 4.6 mph - N/A   Clear
10:53 PM 66.9 °F - 57.9 °F 73% 30.05 in 10.0 mi SW 4.6 mph - N/A   Clear
11:53 PM 66.9 °F - 57.0 °F 70% 30.06 in 10.0 mi WSW 5.8 mph - N/A   Clear